Location: Brno
(49.2000°N, 16.6330°E)
Time: 17:54:23
(UTC+02:00)

Transit 4A - Pass Details

Date: 26 July 2021
Orbit: 871 x 974 km, 66.8° (Epoch: 16 September)

Event Time Altitude Azimuth Distance (km) Brightness Sun altitude
Rises 03:07:45 0° 228° (SW) 3,491 - -15.7°
Reaches altitude 10° 03:10:18 10° 232° (SW) 2,543 - -15.5°
Exits shadow 03:12:02 20° 238° (WSW) 1,928 9.0 -15.4°
Maximum altitude 03:16:05 58° 311° (NW) 1,018 8.1 -15.0°
Drops below altitude 10° 03:21:50 10° 31° (NNE) 2,528 11.6 -14.5°
Sets 03:24:23 0° 35° (NE) 3,470 12.9 -14.3°
